| time (UTC) | temp F | wind direction | speed MPH | gust MPH | rain 1hr in | rain 24hr in | rain mn in | humidity % | barometer mb |
| 20260831164407 | 86 | 328 | 0.0 | 0.0 | 0.00 | 0.00 | 0.00 | 67 | 1021.5 |
| 20260831164208 | 87 | 308 | 0.0 | 0.0 | 0.00 | 0.00 | 0.00 | 70 | 1021.4 |
| 20260831164006 | 86 | 180 | 0.0 | 0.0 | 0.00 | 0.00 | 0.00 | 70 | 1021.5 |
| 20260831163806 | 86 | 16 | 0.0 | 0.0 | 0.00 | 0.00 | 0.00 | 71 | 1021.6 |
| 20260831163606 | 86 | 272 | 0.0 | 0.0 | 0.00 | 0.00 | 0.00 | 72 | 1021.5 |
| 20260831163406 | 86 | 236 | 0.0 | 0.0 | 0.00 | 0.00 | 0.00 | 72 | 1021.6 |
| 20260831163208 | 86 | 244 | 0.0 | 0.0 | 0.00 | 0.00 | 0.00 | 72 | 1021.6 |
| 20260831163006 | 85 | 265 | 0.0 | 0.0 | 0.00 | 0.00 | 0.00 | 73 | 1021.6 |
| 20260831162806 | 85 | 279 | 0.0 | 0.0 | 0.00 | 0.00 | 0.00 | 74 | 1021.6 |
| 20260831162606 | 85 | 257 | 0.0 | 0.0 | 0.00 | 0.00 | 0.00 | 71 | 1021.6 |
| 20260831162406 | 85 | 315 | 0.0 | 0.0 | 0.00 | 0.00 | 0.00 | 70 | 1021.6 |
| 20260831162006 | 86 | 300 | 0.0 | 0.0 | 0.00 | 0.00 | 0.00 | 71 | 1021.7 |
| 20260831161806 | 86 | 267 | 0.0 | 0.0 | 0.00 | 0.00 | 0.00 | 73 | 1021.5 |
| 20260831161606 | 86 | 109 | 0.0 | 0.0 | 0.00 | 0.00 | 0.00 | 73 | 1021.6 |
| 20260831161406 | 86 | 14 | 0.0 | 0.0 | 0.00 | 0.00 | 0.00 | 72 | 1021.5 |
| 20260831161006 | 86 | 329 | 0.0 | 0.0 | 0.00 | 0.00 | 0.00 | 74 | 1021.6 |
| 20260831160808 | 85 | 103 | 0.0 | 0.0 | 0.00 | 0.00 | 0.00 | 73 | 1021.7 |
| 20260831160406 | 85 | 249 | 0.0 | 0.0 | 0.00 | 0.00 | 0.00 | 73 | 1021.7 |
| 20260831160209 | 85 | 315 | 0.0 | 0.0 | 0.00 | 0.00 | 0.00 | 74 | 1021.7 |
| 20260831160008 | 85 | 235 | 0.0 | 0.0 | 0.00 | 0.00 | 0.00 | 74 | 1021.7 |
| 20260831155806 | 85 | 123 | 0.0 | 0.0 | 0.00 | 0.00 | 0.00 | 75 | 1021.7 |
| 20260831155606 | 85 | 267 | 0.0 | 0.0 | 0.00 | 0.00 | 0.00 | 72 | 1021.8 |
| 20260831155208 | 85 | 277 | 0.0 | 0.0 | 0.00 | 0.00 | 0.00 | 74 | 1021.8 |
| 20260831155008 | 85 | 295 | 0.0 | 0.0 | 0.00 | 0.00 | 0.00 | 74 | 1021.8 |
| 20260831154806 | 85 | 282 | 0.0 | 0.0 | 0.00 | 0.00 | 0.00 | 75 | 1021.8 |
| 20260831154606 | 85 | 54 | 0.0 | 0.0 | 0.00 | 0.00 | 0.00 | 77 | 1021.7 |
| 20260831154406 | 85 | 115 | 0.0 | 0.0 | 0.00 | 0.00 | 0.00 | 75 | 1021.9 |
| 20260831154208 | 85 | 5 | 0.0 | 0.0 | 0.00 | 0.00 | 0.00 | 76 | 1021.8 |
| 20260831154006 | 85 | 355 | 0.0 | 0.0 | 0.00 | 0.00 | 0.00 | 75 | 1021.8 |
| 20260831153806 | 85 | 325 | 0.0 | 0.0 | 0.00 | 0.00 | 0.00 | 76 | 1021.9 |
| 20260831153606 | 85 | 94 | 0.0 | 0.0 | 0.00 | 0.00 | 0.00 | 79 | 1021.9 |
| 20260831153406 | 85 | 94 | 0.0 | 0.0 | 0.00 | 0.00 | 0.00 | 78 | 1021.9 |
| 20260831153208 | 85 | 98 | 0.0 | 0.0 | 0.00 | 0.00 | 0.00 | 76 | 1021.9 |
| 20260831153007 | 84 | 99 | 0.0 | 0.0 | 0.00 | 0.00 | 0.00 | 79 | 1021.9 |
| 20260831152606 | 84 | 119 | 0.0 | 0.0 | 0.00 | 0.00 | 0.00 | 79 | 1021.9 |
| 20260831152406 | 84 | 26 | 0.0 | 0.0 | 0.00 | 0.00 | 0.00 | 82 | 1021.9 |
| 20260831152006 | 83 | 315 | 0.0 | 0.0 | 0.00 | 0.00 | 0.00 | 80 | 1022.0 |
| 20260831151806 | 83 | 281 | 0.0 | 0.0 | 0.00 | 0.00 | 0.00 | 79 | 1021.9 |
| 20260831151606 | 83 | 234 | 0.0 | 0.0 | 0.00 | 0.00 | 0.00 | 79 | 1021.9 |
| 20260831151208 | 82 | 266 | 0.0 | 0.0 | 0.00 | 0.00 | 0.00 | 81 | 1022.0 |
| 20260831151006 | 82 | 265 | 0.0 | 0.0 | 0.00 | 0.00 | 0.00 | 82 | 1021.9 |
| 20260831150807 | 82 | 316 | 0.0 | 0.0 | 0.00 | 0.00 | 0.00 | 82 | 1022.0 |
| 20260831150606 | 81 | 40 | 0.0 | 0.0 | 0.00 | 0.00 | 0.00 | 84 | 1021.9 |
| 20260831150406 | 81 | 157 | 0.0 | 0.0 | 0.00 | 0.00 | 0.00 | 83 | 1021.9 |
| 20260831150208 | 81 | 327 | 0.0 | 0.0 | 0.00 | 0.00 | 0.00 | 83 | 1021.9 |
| 20260831150008 | 80 | 261 | 0.0 | 0.0 | 0.00 | 0.00 | 0.00 | 83 | 1021.9 |
| 20260831145806 | 80 | 222 | 0.0 | 0.0 | 0.00 | 0.00 | 0.00 | 83 | 1021.9 |
| 20260831145606 | 80 | 256 | 0.0 | 0.0 | 0.00 | 0.00 | 0.00 | 84 | 1021.9 |
| 20260831145208 | 80 | 265 | 0.0 | 0.0 | 0.00 | 0.00 | 0.00 | 84 | 1021.9 |
| 20260831145006 | 80 | 269 | 0.0 | 0.0 | 0.00 | 0.00 | 0.00 | 84 | 1022.0 |
| 20260831144805 | 79 | 355 | 0.0 | 0.0 | 0.00 | 0.00 | 0.00 | 87 | 1022.0 |
| 20260831144606 | 79 | 305 | 0.0 | 0.0 | 0.00 | 0.00 | 0.00 | 87 | 1022.0 |
| 20260831144406 | 79 | 360 | 0.0 | 0.0 | 0.00 | 0.00 | 0.00 | 89 | 1022.0 |
| 20260831144209 | 78 | 248 | 0.0 | 0.0 | 0.00 | 0.00 | 0.00 | 89 | 1022.1 |
| 20260831144006 | 78 | 273 | 0.0 | 0.0 | 0.00 | 0.00 | 0.00 | 89 | 1022.1 |
| 20260831143805 | 78 | 281 | 0.0 | 0.0 | 0.00 | 0.00 | 0.00 | 89 | 1022.1 |
| 20260831143406 | 77 | 259 | 0.0 | 0.0 | 0.00 | 0.00 | 0.00 | 92 | 1022.0 |
| 20260831143006 | 77 | 331 | 0.0 | 0.0 | 0.00 | 0.00 | 0.00 | 92 | 1022.0 |
| 20260831142806 | 76 | 284 | 0.0 | 0.0 | 0.00 | 0.00 | 0.00 | 93 | 1021.9 |
| 20260831142406 | 76 | 245 | 0.0 | 0.0 | 0.00 | 0.00 | 0.00 | 93 | 1022.0 |
| 20260831142208 | 76 | 246 | 0.0 | 0.0 | 0.00 | 0.00 | 0.00 | 93 | 1021.9 |
| 20260831142006 | 76 | 284 | 0.0 | 0.0 | 0.00 | 0.00 | 0.00 | 94 | 1021.9 |
| 20260831141806 | 76 | 30 | 0.0 | 0.0 | 0.00 | 0.00 | 0.00 | 94 | 1021.9 |
| 20260831141606 | 75 | 296 | 0.0 | 0.0 | 0.00 | 0.00 | 0.00 | 94 | 1021.9 |
| 20260831141406 | 75 | 307 | 0.0 | 0.0 | 0.00 | 0.00 | 0.00 | 94 | 1021.9 |
| 20260831141208 | 75 | 281 | 0.0 | 0.0 | 0.00 | 0.00 | 0.00 | 94 | 1021.9 |
| 20260831141006 | 75 | 246 | 0.0 | 0.0 | 0.00 | 0.00 | 0.00 | 94 | 1021.9 |
| 20260831140806 | 75 | 275 | 0.0 | 0.0 | 0.00 | 0.00 | 0.00 | 94 | 1022.0 |
| 20260831140605 | 75 | 270 | 0.0 | 0.0 | 0.00 | 0.00 | 0.00 | 95 | 1021.9 |
| 20260831140405 | 74 | 277 | 0.0 | 0.0 | 0.00 | 0.00 | 0.00 | 95 | 1021.9 |
| 20260831140008 | 74 | 264 | 0.0 | 0.0 | 0.00 | 0.00 | 0.00 | 96 | 1021.9 |
| 20260831135809 | 74 | 292 | 0.0 | 0.0 | 0.00 | 0.00 | 0.00 | 97 | 1021.8 |
| 20260831135605 | 74 | 256 | 0.0 | 0.0 | 0.00 | 0.00 | 0.00 | 97 | 1021.9 |
| 20260831135406 | 74 | 246 | 0.0 | 0.0 | 0.00 | 0.00 | 0.00 | 97 | 1021.9 |
| 20260831135208 | 74 | 222 | 0.0 | 0.0 | 0.00 | 0.00 | 0.00 | 97 | 1021.8 |
| 20260831135006 | 74 | 222 | 0.0 | 0.0 | 0.00 | 0.00 | 0.00 | 97 | 1021.8 |
| 20260831134805 | 74 | 242 | 0.0 | 0.0 | 0.00 | 0.00 | 0.00 | 97 | 1021.7 |
| 20260831134406 | 73 | 236 | 0.0 | 0.0 | 0.00 | 0.00 | 0.00 | 98 | 1021.7 |
| 20260831134207 | 73 | 258 | 0.0 | 0.0 | 0.00 | 0.00 | 0.00 | 98 | 1021.7 |
| 20260831134005 | 73 | 258 | 0.0 | 0.0 | 0.00 | 0.00 | 0.00 | 98 | 1021.7 |
| 20260831133808 | 73 | 232 | 0.0 | 0.0 | 0.00 | 0.00 | 0.00 | 98 | 1021.7 |
| 20260831133605 | 73 | 262 | 0.0 | 0.0 | 0.00 | 0.00 | 0.00 | 98 | 1021.7 |
| 20260831133405 | 73 | 262 | 0.0 | 0.0 | 0.00 | 0.00 | 0.00 | 98 | 1021.7 |
| 20260831133006 | 72 | 262 | 0.0 | 0.0 | 0.00 | 0.00 | 0.00 | 98 | 1021.8 |
| 20260831132807 | 72 | 262 | 0.0 | 0.0 | 0.00 | 0.00 | 0.00 | 98 | 1021.7 |
| 20260831132408 | 72 | 246 | 0.0 | 0.0 | 0.00 | 0.00 | 0.00 | 98 | 1021.7 |
| 20260831132206 | 72 | 246 | 0.0 | 0.0 | 0.00 | 0.00 | 0.00 | 98 | 1021.7 |
| 20260831132006 | 72 | 246 | 0.0 | 0.0 | 0.00 | 0.00 | 0.00 | 98 | 1021.7 |
| 20260831131806 | 71 | 246 | 0.0 | 0.0 | 0.00 | 0.00 | 0.00 | 98 | 1021.7 |
| 20260831131607 | 71 | 246 | 0.0 | 0.0 | 0.00 | 0.00 | 0.00 | 98 | 1021.7 |
| 20260831131407 | 71 | 246 | 0.0 | 0.0 | 0.00 | 0.00 | 0.00 | 98 | 1021.7 |
| 20260831131008 | 71 | 246 | 0.0 | 0.0 | 0.00 | 0.00 | 0.00 | 98 | 1021.7 |
| 20260831130606 | 70 | 237 | 0.0 | 0.0 | 0.00 | 0.00 | 0.00 | 97 | 1021.7 |
| 20260831130407 | 70 | 237 | 0.0 | 0.0 | 0.00 | 0.00 | 0.00 | 97 | 1021.7 |
| 20260831130206 | 70 | 237 | 0.0 | 0.0 | 0.00 | 0.00 | 0.00 | 98 | 1021.7 |
| 20260831130010 | 70 | 237 | 0.0 | 0.0 | 0.00 | 0.00 | 0.00 | 97 | 1021.7 |
| 20260831125806 | 70 | 237 | 0.0 | 0.0 | 0.00 | 0.00 | 0.00 | 97 | 1021.6 |
| 20260831125606 | 70 | 237 | 0.0 | 0.0 | 0.00 | 0.00 | 0.00 | 96 | 1021.7 |
| 20260831125407 | 70 | 237 | 0.0 | 0.0 | 0.00 | 0.00 | 0.00 | 96 | 1021.7 |
| 20260831125008 | 69 | 237 | 0.0 | 0.0 | 0.00 | 0.00 | 0.00 | 96 | 1021.6 |
| 20260831124805 | 69 | 237 | 0.0 | 0.0 | 0.00 | 0.00 | 0.00 | 96 | 1021.6 |
| 20260831124606 | 69 | 237 | 0.0 | 0.0 | 0.00 | 0.00 | 0.00 | 96 | 1021.6 |
| 20260831124407 | 69 | 237 | 0.0 | 0.0 | 0.00 | 0.00 | 0.00 | 96 | 1021.6 |
| 20260831124206 | 69 | 237 | 0.0 | 0.0 | 0.00 | 0.00 | 0.00 | 96 | 1021.5 |
| 20260831124008 | 69 | 237 | 0.0 | 0.0 | 0.00 | 0.00 | 0.00 | 97 | 1021.6 |
| 20260831123805 | 69 | 237 | 0.0 | 0.0 | 0.00 | 0.00 | 0.00 | 96 | 1021.5 |
| 20260831123605 | 69 | 237 | 0.0 | 0.0 | 0.00 | 0.00 | 0.00 | 96 | 1021.6 |
| 20260831123405 | 69 | 237 | 0.0 | 0.0 | 0.00 | 0.00 | 0.00 | 97 | 1021.6 |
| 20260831123007 | 68 | 237 | 0.0 | 0.0 | 0.00 | 0.00 | 0.00 | 96 | 1021.6 |
| 20260831122607 | 68 | 237 | 0.0 | 0.0 | 0.00 | 0.00 | 0.00 | 96 | 1021.6 |
| 20260831122206 | 68 | 237 | 0.0 | 0.0 | 0.00 | 0.00 | 0.00 | 96 | 1021.5 |
| 20260831122007 | 68 | 237 | 0.0 | 0.0 | 0.00 | 0.00 | 0.00 | 96 | 1021.5 |
| 20260831121806 | 68 | 237 | 0.0 | 0.0 | 0.00 | 0.00 | 0.00 | 96 | 1021.6 |
| 20260831121608 | 68 | 237 | 0.0 | 0.0 | 0.00 | 0.00 | 0.00 | 96 | 1021.6 |
| 20260831121405 | 68 | 237 | 0.0 | 0.0 | 0.00 | 0.00 | 0.00 | 96 | 1021.6 |
| 20260831121205 | 68 | 237 | 0.0 | 0.0 | 0.00 | 0.00 | 0.00 | 96 | 1021.7 |
| 20260831121006 | 68 | 237 | 0.0 | 0.0 | 0.00 | 0.00 | 0.00 | 96 | 1021.5 |
| 20260831120806 | 68 | 237 | 0.0 | 0.0 | 0.00 | 0.00 | 0.00 | 95 | 1021.5 |
| 20260831120607 | 68 | 237 | 0.0 | 0.0 | 0.00 | 0.00 | 0.00 | 95 | 1021.5 |
| 20260831120009 | 68 | 237 | 0.0 | 0.0 | 0.00 | 0.00 | 0.00 | 95 | 1021.5 |
| 20260831115806 | 68 | 237 | 0.0 | 0.0 | 0.00 | 0.00 | 0.00 | 95 | 1021.6 |
| 20260831115606 | 68 | 237 | 0.0 | 0.0 | 0.00 | 0.00 | 0.00 | 95 | 1021.6 |
| 20260831115405 | 68 | 237 | 0.0 | 0.0 | 0.00 | 0.00 | 0.00 | 95 | 1021.6 |
| 20260831114806 | 68 | 237 | 0.0 | 0.0 | 0.00 | 0.00 | 0.00 | 95 | 1021.5 |
| 20260831114607 | 68 | 237 | 0.0 | 0.0 | 0.00 | 0.00 | 0.00 | 95 | 1021.6 |
| 20260831114406 | 68 | 237 | 0.0 | 0.0 | 0.00 | 0.00 | 0.00 | 95 | 1021.5 |
| 20260831113806 | 68 | 237 | 0.0 | 0.0 | 0.00 | 0.00 | 0.00 | 95 | 1021.4 |
| 20260831113607 | 68 | 237 | 0.0 | 0.0 | 0.00 | 0.00 | 0.00 | 96 | 1021.4 |
| 20260831113407 | 68 | 237 | 0.0 | 0.0 | 0.00 | 0.00 | 0.00 | 95 | 1021.5 |
| 20260831113208 | 68 | 237 | 0.0 | 0.0 | 0.00 | 0.00 | 0.00 | 95 | 1021.4 |
| 20260831113006 | 68 | 237 | 0.0 | 0.0 | 0.00 | 0.00 | 0.00 | 95 | 1021.3 |
| 20260831112806 | 68 | 237 | 0.0 | 0.0 | 0.00 | 0.00 | 0.00 | 95 | 1021.3 |
| 20260831112606 | 68 | 237 | 0.0 | 0.0 | 0.00 | 0.00 | 0.00 | 95 | 1021.3 |
| 20260831112406 | 68 | 237 | 0.0 | 0.0 | 0.00 | 0.00 | 0.00 | 95 | 1021.3 |
| 20260831112209 | 68 | 237 | 0.0 | 0.0 | 0.00 | 0.00 | 0.00 | 96 | 1021.3 |
| 20260831112005 | 68 | 237 | 0.0 | 0.0 | 0.00 | 0.00 | 0.00 | 96 | 1021.3 |
| 20260831111806 | 68 | 237 | 0.0 | 0.0 | 0.00 | 0.00 | 0.00 | 96 | 1021.2 |
| 20260831111605 | 68 | 237 | 0.0 | 0.0 | 0.00 | 0.00 | 0.00 | 96 | 1021.2 |
| 20260831111209 | 68 | 237 | 0.0 | 0.0 | 0.00 | 0.00 | 0.00 | 94 | 1021.1 |
| 20260831111005 | 68 | 237 | 0.0 | 0.0 | 0.00 | 0.00 | 0.00 | 94 | 1021.0 |
| 20260831110805 | 68 | 237 | 0.0 | 0.0 | 0.00 | 0.00 | 0.00 | 94 | 1021.0 |
| 20260831110606 | 68 | 237 | 0.0 | 0.0 | 0.00 | 0.00 | 0.00 | 94 | 1020.9 |
| 20260831110405 | 68 | 237 | 0.0 | 0.0 | 0.00 | 0.00 | 0.00 | 94 | 1021.0 |
| 20260831110209 | 68 | 237 | 0.0 | 0.0 | 0.00 | 0.00 | 0.00 | 94 | 1021.0 |
| 20260831105804 | 68 | 237 | 0.0 | 0.0 | 0.00 | 0.00 | 0.00 | 94 | 1021.0 |
| 20260831105606 | 68 | 237 | 0.0 | 0.0 | 0.00 | 0.00 | 0.00 | 94 | 1020.9 |
| 20260831105405 | 68 | 237 | 0.0 | 0.0 | 0.00 | 0.00 | 0.00 | 94 | 1020.9 |
| 20260831105207 | 68 | 237 | 0.0 | 0.0 | 0.00 | 0.00 | 0.00 | 94 | 1020.9 |
| 20260831104804 | 68 | 237 | 0.0 | 0.0 | 0.00 | 0.00 | 0.00 | 94 | 1020.7 |
| 20260831104604 | 68 | 237 | 0.0 | 0.0 | 0.00 | 0.00 | 0.00 | 94 | 1020.7 |
| 20260831104404 | 68 | 237 | 0.0 | 0.0 | 0.00 | 0.00 | 0.00 | 94 | 1020.8 |
| 20260831104206 | 68 | 237 | 0.0 | 0.0 | 0.00 | 0.00 | 0.00 | 94 | 1020.7 |
| 20260831103807 | 68 | 237 | 0.0 | 0.0 | 0.00 | 0.00 | 0.00 | 94 | 1020.8 |
| 20260831103606 | 68 | 237 | 0.0 | 0.0 | 0.00 | 0.00 | 0.00 | 94 | 1020.7 |
| 20260831103405 | 68 | 237 | 0.0 | 0.0 | 0.00 | 0.00 | 0.00 | 94 | 1020.7 |
| 20260831103205 | 68 | 237 | 0.0 | 0.0 | 0.00 | 0.00 | 0.00 | 94 | 1020.8 |
| 20260831102806 | 68 | 237 | 0.0 | 0.0 | 0.00 | 0.00 | 0.00 | 94 | 1020.7 |
| 20260831102604 | 68 | 237 | 0.0 | 0.0 | 0.00 | 0.00 | 0.00 | 94 | 1020.8 |
| 20260831102408 | 68 | 237 | 0.0 | 0.0 | 0.00 | 0.00 | 0.00 | 94 | 1020.8 |
| 20260831102204 | 68 | 237 | 0.0 | 0.0 | 0.00 | 0.00 | 0.00 | 94 | 1020.8 |
| 20260831102005 | 68 | 237 | 0.0 | 0.0 | 0.00 | 0.00 | 0.00 | 94 | 1020.9 |
| 20260831101806 | 68 | 237 | 0.0 | 0.0 | 0.00 | 0.00 | 0.00 | 94 | 1020.7 |
| 20260831101604 | 68 | 237 | 0.0 | 0.0 | 0.00 | 0.00 | 0.00 | 94 | 1020.8 |
| 20260831101408 | 68 | 237 | 0.0 | 0.0 | 0.00 | 0.00 | 0.00 | 94 | 1020.8 |
| 20260831101205 | 68 | 237 | 0.0 | 0.0 | 0.00 | 0.00 | 0.00 | 94 | 1020.9 |
| 20260831101005 | 69 | 237 | 0.0 | 0.0 | 0.00 | 0.00 | 0.00 | 94 | 1020.9 |
| 20260831100806 | 69 | 237 | 0.0 | 0.0 | 0.00 | 0.00 | 0.00 | 94 | 1021.0 |
| 20260831100605 | 68 | 237 | 0.0 | 0.0 | 0.00 | 0.00 | 0.00 | 94 | 1021.0 |
| 20260831100407 | 69 | 237 | 0.0 | 0.0 | 0.00 | 0.00 | 0.00 | 94 | 1020.9 |
| 20260831100007 | 69 | 237 | 0.0 | 0.0 | 0.00 | 0.00 | 0.00 | 94 | 1020.9 |
| 20260831095806 | 69 | 237 | 0.0 | 0.0 | 0.00 | 0.00 | 0.00 | 93 | 1021.0 |
| 20260831095407 | 69 | 237 | 0.0 | 0.0 | 0.00 | 0.00 | 0.00 | 94 | 1021.0 |
| 20260831095205 | 69 | 237 | 0.0 | 0.0 | 0.00 | 0.00 | 0.00 | 94 | 1021.0 |
| 20260831095004 | 69 | 237 | 0.0 | 0.0 | 0.00 | 0.00 | 0.00 | 94 | 1020.9 |
| 20260831094806 | 69 | 237 | 0.0 | 0.0 | 0.00 | 0.00 | 0.00 | 94 | 1021.0 |
| 20260831094605 | 69 | 237 | 0.0 | 0.0 | 0.00 | 0.00 | 0.00 | 94 | 1020.9 |
| 20260831094406 | 69 | 237 | 0.0 | 0.0 | 0.00 | 0.00 | 0.00 | 94 | 1020.9 |
| 20260831094205 | 69 | 237 | 0.0 | 0.0 | 0.00 | 0.00 | 0.00 | 94 | 1021.0 |
| 20260831094005 | 69 | 237 | 0.0 | 0.0 | 0.00 | 0.00 | 0.00 | 94 | 1020.9 |
| 20260831093806 | 69 | 237 | 0.0 | 0.0 | 0.00 | 0.00 | 0.00 | 94 | 1020.9 |
| 20260831093406 | 69 | 237 | 0.0 | 0.0 | 0.00 | 0.00 | 0.00 | 94 | 1020.9 |
| 20260831093205 | 69 | 237 | 0.0 | 0.0 | 0.00 | 0.00 | 0.00 | 94 | 1020.9 |
| 20260831093005 | 69 | 237 | 0.0 | 0.0 | 0.00 | 0.00 | 0.00 | 94 | 1021.0 |
| 20260831092806 | 69 | 237 | 0.0 | 0.0 | 0.00 | 0.00 | 0.00 | 94 | 1020.9 |
| 20260831092605 | 69 | 237 | 0.0 | 0.0 | 0.00 | 0.00 | 0.00 | 94 | 1020.9 |
| 20260831092407 | 69 | 237 | 0.0 | 0.0 | 0.00 | 0.00 | 0.00 | 94 | 1020.9 |
| 20260831092206 | 69 | 237 | 0.0 | 0.0 | 0.00 | 0.00 | 0.00 | 94 | 1020.9 |
| 20260831092006 | 69 | 237 | 0.0 | 0.0 | 0.00 | 0.00 | 0.00 | 94 | 1020.9 |
| 20260831091806 | 69 | 237 | 0.0 | 0.0 | 0.00 | 0.00 | 0.00 | 94 | 1020.9 |
| 20260831091605 | 69 | 237 | 0.0 | 0.0 | 0.00 | 0.00 | 0.00 | 94 | 1020.9 |
| 20260831091005 | 69 | 237 | 0.0 | 0.0 | 0.00 | 0.00 | 0.00 | 94 | 1021.0 |
| 20260831090806 | 69 | 237 | 0.0 | 0.0 | 0.00 | 0.00 | 0.00 | 94 | 1021.0 |
| 20260831090605 | 69 | 237 | 0.0 | 0.0 | 0.00 | 0.00 | 0.00 | 94 | 1021.0 |
| 20260831090407 | 69 | 237 | 0.0 | 0.0 | 0.00 | 0.00 | 0.00 | 94 | 1021.0 |
| 20260831090205 | 69 | 237 | 0.0 | 0.0 | 0.00 | 0.00 | 0.00 | 94 | 1021.0 |
| 20260831090007 | 69 | 237 | 0.0 | 0.0 | 0.00 | 0.00 | 0.00 | 94 | 1021.0 |
| 20260831085806 | 69 | 237 | 0.0 | 0.0 | 0.00 | 0.00 | 0.00 | 94 | 1021.0 |
| 20260831085605 | 69 | 237 | 0.0 | 0.0 | 0.00 | 0.00 | 0.00 | 94 | 1020.9 |
| 20260831085407 | 69 | 237 | 0.0 | 0.0 | 0.00 | 0.00 | 0.00 | 94 | 1021.0 |
| 20260831085205 | 69 | 237 | 0.0 | 0.0 | 0.00 | 0.00 | 0.00 | 94 | 1020.9 |
| 20260831085005 | 69 | 237 | 0.0 | 0.0 | 0.00 | 0.00 | 0.00 | 94 | 1020.9 |
| 20260831084806 | 69 | 237 | 0.0 | 0.0 | 0.00 | 0.00 | 0.00 | 94 | 1020.9 |
| 20260831084606 | 69 | 237 | 0.0 | 0.0 | 0.00 | 0.00 | 0.00 | 94 | 1020.8 |
| 20260831084407 | 69 | 237 | 0.0 | 0.0 | 0.00 | 0.00 | 0.00 | 94 | 1020.8 |
| 20260831084204 | 69 | 237 | 0.0 | 0.0 | 0.00 | 0.00 | 0.00 | 94 | 1021.0 |
| 20260831084005 | 69 | 237 | 0.0 | 0.0 | 0.00 | 0.00 | 0.00 | 94 | 1020.9 |
| 20260831083806 | 69 | 237 | 0.0 | 0.0 | 0.00 | 0.00 | 0.00 | 94 | 1020.9 |
| 20260831083004 | 70 | 237 | 0.0 | 0.0 | 0.00 | 0.00 | 0.00 | 95 | 1020.8 |
| 20260831082806 | 70 | 237 | 0.0 | 0.0 | 0.00 | 0.00 | 0.00 | 95 | 1020.9 |
| 20260831082605 | 70 | 237 | 0.0 | 0.0 | 0.00 | 0.00 | 0.00 | 96 | 1020.8 |
| 20260831082406 | 70 | 237 | 0.0 | 0.0 | 0.00 | 0.00 | 0.00 | 96 | 1020.8 |
| 20260831082205 | 70 | 237 | 0.0 | 0.0 | 0.00 | 0.00 | 0.00 | 96 | 1020.8 |
| 20260831082007 | 70 | 237 | 0.0 | 0.0 | 0.00 | 0.00 | 0.00 | 95 | 1020.7 |
| 20260831081606 | 69 | 237 | 0.0 | 0.0 | 0.00 | 0.00 | 0.00 | 94 | 1020.6 |
| 20260831081406 | 69 | 237 | 0.0 | 0.0 | 0.00 | 0.00 | 0.00 | 94 | 1020.6 |
| 20260831081205 | 69 | 237 | 0.0 | 0.0 | 0.00 | 0.00 | 0.00 | 94 | 1020.6 |
| 20260831081007 | 69 | 237 | 0.0 | 0.0 | 0.00 | 0.00 | 0.00 | 93 | 1020.7 |
| 20260831080805 | 69 | 237 | 0.0 | 0.0 | 0.00 | 0.00 | 0.00 | 93 | 1020.6 |
| 20260831080605 | 69 | 237 | 0.0 | 0.0 | 0.00 | 0.00 | 0.00 | 93 | 1020.6 |
| 20260831080406 | 69 | 237 | 0.0 | 0.0 | 0.00 | 0.00 | 0.00 | 94 | 1020.6 |
| 20260831080205 | 69 | 237 | 0.0 | 0.0 | 0.00 | 0.00 | 0.00 | 94 | 1020.6 |
| 20260831080009 | 69 | 237 | 0.0 | 0.0 | 0.00 | 0.00 | 0.00 | 93 | 1020.7 |
| 20260831075806 | 69 | 237 | 0.0 | 0.0 | 0.00 | 0.00 | 0.00 | 93 | 1020.6 |
| 20260831075605 | 69 | 237 | 0.0 | 0.0 | 0.00 | 0.00 | 0.00 | 93 | 1020.7 |
| 20260831075406 | 69 | 237 | 0.0 | 0.0 | 0.00 | 0.00 | 0.00 | 93 | 1020.6 |
| 20260831075205 | 69 | 237 | 0.0 | 0.0 | 0.00 | 0.00 | 0.00 | 93 | 1020.7 |
| 20260831075007 | 69 | 237 | 0.0 | 0.0 | 0.00 | 0.00 | 0.00 | 93 | 1020.7 |
| 20260831074805 | 69 | 237 | 0.0 | 0.0 | 0.00 | 0.00 | 0.00 | 93 | 1020.7 |
| 20260831074605 | 69 | 237 | 0.0 | 0.0 | 0.00 | 0.00 | 0.00 | 93 | 1020.8 |
| 20260831074406 | 69 | 237 | 0.0 | 0.0 | 0.00 | 0.00 | 0.00 | 93 | 1020.8 |
| 20260831074205 | 69 | 237 | 0.0 | 0.0 | 0.00 | 0.00 | 0.00 | 93 | 1020.7 |
| 20260831074007 | 70 | 237 | 0.0 | 0.0 | 0.00 | 0.00 | 0.00 | 93 | 1020.7 |
| 20260831073805 | 70 | 237 | 0.0 | 0.0 | 0.00 | 0.00 | 0.00 | 94 | 1020.6 |
| 20260831073605 | 70 | 237 | 0.0 | 0.0 | 0.00 | 0.00 | 0.00 | 93 | 1020.5 |
| 20260831073406 | 70 | 237 | 0.0 | 0.0 | 0.00 | 0.00 | 0.00 | 93 | 1020.5 |
| 20260831073007 | 70 | 237 | 0.0 | 0.0 | 0.00 | 0.00 | 0.00 | 93 | 1020.4 |
| 20260831072805 | 70 | 237 | 0.0 | 0.0 | 0.00 | 0.00 | 0.00 | 93 | 1020.5 |
| 20260831072605 | 70 | 237 | 0.0 | 0.0 | 0.00 | 0.00 | 0.00 | 93 | 1020.6 |
| 20260831072406 | 70 | 237 | 0.0 | 0.0 | 0.00 | 0.00 | 0.00 | 93 | 1020.5 |
| 20260831072205 | 70 | 237 | 0.0 | 0.0 | 0.00 | 0.00 | 0.00 | 93 | 1020.5 |
| 20260831072007 | 70 | 237 | 0.0 | 0.0 | 0.00 | 0.00 | 0.00 | 93 | 1020.6 |
| 20260831071805 | 70 | 237 | 0.0 | 0.0 | 0.00 | 0.00 | 0.00 | 93 | 1020.6 |
| 20260831071605 | 70 | 237 | 0.0 | 0.0 | 0.00 | 0.00 | 0.00 | 93 | 1020.5 |
| 20260831071408 | 70 | 237 | 0.0 | 0.0 | 0.00 | 0.00 | 0.00 | 93 | 1020.6 |
| 20260831071009 | 70 | 237 | 0.0 | 0.0 | 0.00 | 0.00 | 0.00 | 93 | 1020.6 |
| 20260831070805 | 70 | 237 | 0.0 | 0.0 | 0.00 | 0.00 | 0.00 | 93 | 1020.6 |
| 20260831070406 | 70 | 237 | 0.0 | 0.0 | 0.00 | 0.00 | 0.00 | 93 | 1020.6 |
| 20260831070010 | 70 | 237 | 0.0 | 0.0 | 0.00 | 0.00 | 0.00 | 93 | 1020.7 |
| 20260831065805 | 70 | 237 | 0.0 | 0.0 | 0.00 | 0.00 | 0.00 | 93 | 1020.7 |
| 20260831065406 | 70 | 237 | 0.0 | 0.0 | 0.00 | 0.00 | 0.00 | 93 | 1020.7 |
| 20260831065205 | 70 | 237 | 0.0 | 0.0 | 0.00 | 0.00 | 0.00 | 94 | 1020.8 |
| 20260831065007 | 70 | 237 | 0.0 | 0.0 | 0.00 | 0.00 | 0.00 | 94 | 1020.7 |
| 20260831064805 | 70 | 237 | 0.0 | 0.0 | 0.00 | 0.00 | 0.00 | 94 | 1020.7 |
| 20260831064605 | 70 | 237 | 0.0 | 0.0 | 0.00 | 0.00 | 0.00 | 94 | 1020.7 |
| 20260831064406 | 71 | 237 | 0.0 | 0.0 | 0.00 | 0.00 | 0.00 | 95 | 1020.7 |
| 20260831063806 | 70 | 237 | 0.0 | 0.0 | 0.00 | 0.00 | 0.00 | 94 | 1020.7 |
| 20260831063605 | 70 | 237 | 0.0 | 0.0 | 0.00 | 0.00 | 0.00 | 94 | 1020.7 |
| 20260831063406 | 70 | 237 | 0.0 | 0.0 | 0.00 | 0.00 | 0.00 | 94 | 1020.6 |
| 20260831063205 | 70 | 237 | 0.0 | 1.0 | 0.00 | 0.00 | 0.00 | 94 | 1020.6 |
| 20260831063007 | 70 | 237 | 0.0 | 1.0 | 0.00 | 0.00 | 0.00 | 93 | 1020.7 |
| 20260831062804 | 70 | 237 | 0.0 | 1.0 | 0.00 | 0.00 | 0.00 | 93 | 1020.6 |
| 20260831062406 | 70 | 217 | 0.0 | 0.0 | 0.00 | 0.00 | 0.00 | 92 | 1020.7 |
| 20260831062205 | 70 | 217 | 0.0 | 0.0 | 0.00 | 0.00 | 0.00 | 93 | 1020.8 |
| 20260831061805 | 70 | 217 | 0.0 | 0.0 | 0.00 | 0.00 | 0.00 | 92 | 1020.7 |
| 20260831061604 | 70 | 217 | 0.0 | 0.0 | 0.00 | 0.00 | 0.00 | 92 | 1020.7 |
| 20260831061406 | 70 | 217 | 0.0 | 0.0 | 0.00 | 0.00 | 0.00 | 93 | 1020.8 |
| 20260831061205 | 70 | 217 | 0.0 | 0.0 | 0.00 | 0.00 | 0.00 | 92 | 1020.8 |
| 20260831061007 | 70 | 217 | 0.0 | 0.0 | 0.00 | 0.00 | 0.00 | 92 | 1020.8 |
| 20260831060805 | 70 | 217 | 0.0 | 0.0 | 0.00 | 0.00 | 0.00 | 93 | 1020.8 |
| 20260831060606 | 70 | 217 | 0.0 | 0.0 | 0.00 | 0.00 | 0.00 | 92 | 1020.8 |
| 20260831060406 | 70 | 217 | 0.0 | 0.0 | 0.00 | 0.00 | 0.00 | 92 | 1020.8 |
| 20260831060204 | 70 | 217 | 0.0 | 0.0 | 0.00 | 0.00 | 0.00 | 92 | 1020.8 |
| 20260831060011 | 70 | 217 | 0.0 | 0.0 | 0.00 | 0.00 | 0.00 | 92 | 1020.9 |
| 20260831055805 | 70 | 217 | 0.0 | 0.0 | 0.00 | 0.00 | 0.00 | 92 | 1021.0 |
| 20260831055605 | 70 | 217 | 0.0 | 0.0 | 0.00 | 0.00 | 0.00 | 92 | 1020.9 |
| 20260831055406 | 70 | 217 | 0.0 | 0.0 | 0.00 | 0.00 | 0.00 | 92 | 1021.0 |
| 20260831055205 | 70 | 217 | 0.0 | 0.0 | 0.00 | 0.00 | 0.00 | 92 | 1020.9 |
| 20260831055007 | 70 | 217 | 0.0 | 0.0 | 0.00 | 0.00 | 0.00 | 92 | 1020.9 |
| 20260831054805 | 70 | 217 | 0.0 | 0.0 | 0.00 | 0.00 | 0.00 | 92 | 1020.9 |
| 20260831054605 | 70 | 217 | 0.0 | 0.0 | 0.00 | 0.00 | 0.00 | 91 | 1020.9 |
| 20260831054406 | 70 | 217 | 0.0 | 0.0 | 0.00 | 0.00 | 0.00 | 91 | 1020.8 |
| 20260831054205 | 70 | 217 | 0.0 | 0.0 | 0.00 | 0.00 | 0.00 | 91 | 1020.8 |
| 20260831054007 | 71 | 217 | 0.0 | 0.0 | 0.00 | 0.00 | 0.00 | 91 | 1020.8 |
| 20260831053804 | 71 | 217 | 0.0 | 0.0 | 0.00 | 0.00 | 0.00 | 91 | 1020.9 |
| 20260831053605 | 71 | 217 | 0.0 | 0.0 | 0.00 | 0.00 | 0.00 | 91 | 1020.9 |
| 20260831053406 | 71 | 217 | 0.0 | 0.0 | 0.00 | 0.00 | 0.00 | 91 | 1020.9 |
| 20260831053204 | 71 | 217 | 0.0 | 0.0 | 0.00 | 0.00 | 0.00 | 91 | 1021.0 |
| 20260831052805 | 71 | 217 | 0.0 | 1.0 | 0.00 | 0.00 | 0.00 | 91 | 1020.9 |
| 20260831052604 | 71 | 217 | 0.0 | 1.0 | 0.00 | 0.00 | 0.00 | 92 | 1021.0 |
| 20260831052408 | 71 | 217 | 0.0 | 1.0 | 0.00 | 0.00 | 0.00 | 92 | 1020.9 |
| 20260831052205 | 71 | 217 | 0.0 | 0.0 | 0.00 | 0.00 | 0.00 | 91 | 1020.9 |
| 20260831052007 | 71 | 217 | 0.0 | 0.0 | 0.00 | 0.00 | 0.00 | 91 | 1020.9 |
| 20260831051804 | 71 | 217 | 0.0 | 0.0 | 0.00 | 0.00 | 0.00 | 91 | 1020.9 |
| 20260831051604 | 71 | 217 | 0.0 | 0.0 | 0.00 | 0.00 | 0.00 | 91 | 1020.9 |
| 20260831051406 | 71 | 217 | 0.0 | 0.0 | 0.00 | 0.00 | 0.00 | 91 | 1021.0 |
| 20260831051204 | 71 | 217 | 0.0 | 0.0 | 0.00 | 0.00 | 0.00 | 91 | 1020.9 |
| 20260831051007 | 71 | 217 | 0.0 | 0.0 | 0.00 | 0.00 | 0.00 | 91 | 1020.9 |
| 20260831050805 | 71 | 217 | 0.0 | 0.0 | 0.00 | 0.00 | 0.00 | 91 | 1020.9 |
| 20260831050406 | 71 | 217 | 0.0 | 0.0 | 0.00 | 0.00 | 0.00 | 90 | 1020.9 |
| 20260831050204 | 71 | 217 | 0.0 | 0.0 | 0.00 | 0.00 | 0.00 | 90 | 1020.9 |
| 20260831050009 | 71 | 217 | 0.0 | 0.0 | 0.00 | 0.00 | 0.00 | 90 | 1020.8 |
| 20260831045805 | 71 | 217 | 0.0 | 0.0 | 0.00 | 0.00 | 0.00 | 90 | 1020.9 |
| 20260831045604 | 71 | 217 | 0.0 | 0.0 | 0.00 | 0.00 | 0.00 | 90 | 1020.8 |
| 20260831045406 | 71 | 217 | 0.0 | 0.0 | 0.00 | 0.00 | 0.00 | 90 | 1020.9 |
| 20260831045205 | 71 | 217 | 0.0 | 0.0 | 0.00 | 0.00 | 0.00 | 90 | 1020.8 |
| 20260831045007 | 71 | 217 | 0.0 | 0.0 | 0.00 | 0.00 | 0.00 | 90 | 1020.9 |
| 20260831044806 | 71 | 217 | 0.0 | 0.0 | 0.00 | 0.00 | 0.00 | 90 | 1020.9 |
| 20260831044605 | 71 | 217 | 0.0 | 0.0 | 0.00 | 0.00 | 0.00 | 90 | 1020.9 |
| 20260831044407 | 71 | 217 | 0.0 | 0.0 | 0.00 | 0.00 | 0.00 | 90 | 1020.9 |
| 20260831044204 | 71 | 217 | 0.0 | 0.0 | 0.00 | 0.00 | 0.00 | 90 | 1021.0 |
| 20260831043605 | 71 | 217 | 0.0 | 0.0 | 0.00 | 0.00 | 0.00 | 90 | 1020.9 |
| 20260831043406 | 71 | 217 | 0.0 | 0.0 | 0.00 | 0.00 | 0.00 | 90 | 1020.8 |
| 20260831043204 | 71 | 217 | 0.0 | 0.0 | 0.00 | 0.00 | 0.00 | 90 | 1020.8 |
| 20260831043006 | 71 | 217 | 0.0 | 0.0 | 0.00 | 0.00 | 0.00 | 90 | 1020.9 |
| 20260831042804 | 71 | 217 | 0.0 | 0.0 | 0.00 | 0.00 | 0.00 | 90 | 1020.9 |
| 20260831042607 | 71 | 217 | 0.0 | 0.0 | 0.00 | 0.00 | 0.00 | 90 | 1020.9 |
| 20260831042404 | 71 | 217 | 0.0 | 0.0 | 0.00 | 0.00 | 0.00 | 90 | 1021.0 |
| 20260831042204 | 71 | 217 | 0.0 | 0.0 | 0.00 | 0.00 | 0.00 | 90 | 1021.0 |
| 20260831042004 | 72 | 217 | 0.0 | 0.0 | 0.00 | 0.00 | 0.00 | 90 | 1021.0 |
| 20260831041804 | 72 | 217 | 0.0 | 0.0 | 0.00 | 0.00 | 0.00 | 90 | 1021.1 |
| 20260831041607 | 72 | 217 | 0.0 | 0.0 | 0.00 | 0.00 | 0.00 | 90 | 1021.1 |
| 20260831041204 | 72 | 217 | 0.0 | 0.0 | 0.00 | 0.00 | 0.00 | 89 | 1021.1 |
| 20260831041004 | 72 | 217 | 0.0 | 0.0 | 0.00 | 0.00 | 0.00 | 89 | 1021.1 |
| 20260831040805 | 72 | 217 | 0.0 | 0.0 | 0.00 | 0.00 | 0.00 | 89 | 1021.1 |
| 20260831040606 | 72 | 217 | 0.0 | 0.0 | 0.00 | 0.00 | 0.00 | 89 | 1021.1 |
| 20260831040405 | 72 | 217 | 0.0 | 0.0 | 0.00 | 0.00 | 0.00 | 89 | 1021.1 |
| 20260831035807 | 72 | 217 | 0.0 | 0.0 | 0.00 | 0.00 | 0.00 | 89 | 1021.1 |
| 20260831035609 | 72 | 217 | 0.0 | 0.0 | 0.00 | 0.00 | 0.00 | 89 | 1021.0 |
| 20260831035407 | 72 | 217 | 0.0 | 0.0 | 0.00 | 0.00 | 0.00 | 89 | 1021.1 |
| 20260831035209 | 72 | 217 | 0.0 | 0.0 | 0.00 | 0.00 | 0.00 | 89 | 1021.1 |
| 20260831035009 | 72 | 217 | 0.0 | 0.0 | 0.00 | 0.00 | 0.00 | 89 | 1021.1 |
| 20260831034807 | 72 | 217 | 0.0 | 0.0 | 0.00 | 0.00 | 0.00 | 89 | 1021.1 |
| 20260831034608 | 72 | 217 | 0.0 | 0.0 | 0.00 | 0.00 | 0.00 | 89 | 1021.1 |
| 20260831034407 | 72 | 217 | 0.0 | 0.0 | 0.00 | 0.00 | 0.00 | 90 | 1021.0 |
| 20260831034209 | 72 | 217 | 0.0 | 0.0 | 0.00 | 0.00 | 0.00 | 90 | 1021.1 |
| 20260831034007 | 72 | 217 | 0.0 | 0.0 | 0.00 | 0.00 | 0.00 | 90 | 1021.1 |
| 20260831033807 | 72 | 217 | 0.0 | 0.0 | 0.00 | 0.00 | 0.00 | 90 | 1021.1 |
| 20260831033608 | 72 | 217 | 0.0 | 0.0 | 0.00 | 0.00 | 0.00 | 90 | 1021.1 |
| 20260831033209 | 73 | 217 | 0.0 | 0.0 | 0.00 | 0.00 | 0.00 | 89 | 1021.1 |
| 20260831033007 | 73 | 217 | 0.0 | 0.0 | 0.00 | 0.00 | 0.00 | 89 | 1021.1 |
| 20260831032807 | 73 | 217 | 0.0 | 0.0 | 0.00 | 0.00 | 0.00 | 89 | 1021.2 |
| 20260831032209 | 73 | 217 | 0.0 | 0.0 | 0.00 | 0.00 | 0.00 | 88 | 1021.1 |
| 20260831032007 | 73 | 217 | 0.0 | 0.0 | 0.00 | 0.00 | 0.00 | 88 | 1021.2 |
| 20260831031807 | 73 | 217 | 0.0 | 0.0 | 0.00 | 0.00 | 0.00 | 88 | 1021.2 |
| 20260831031609 | 73 | 217 | 0.0 | 0.0 | 0.00 | 0.00 | 0.00 | 88 | 1021.2 |
| 20260831031008 | 73 | 217 | 0.0 | 0.0 | 0.00 | 0.00 | 0.00 | 88 | 1021.1 |
| 20260831030809 | 73 | 217 | 0.0 | 0.0 | 0.00 | 0.00 | 0.00 | 88 | 1021.1 |
| 20260831030609 | 73 | 217 | 0.0 | 0.0 | 0.00 | 0.00 | 0.00 | 88 | 1021.2 |
| 20260831030407 | 73 | 217 | 0.0 | 0.0 | 0.00 | 0.00 | 0.00 | 88 | 1021.3 |
| 20260831030209 | 73 | 217 | 0.0 | 0.0 | 0.00 | 0.00 | 0.00 | 88 | 1021.3 |
| 20260831030009 | 73 | 217 | 0.0 | 0.0 | 0.00 | 0.00 | 0.00 | 89 | 1021.3 |
| 20260831025407 | 73 | 217 | 0.0 | 0.0 | 0.00 | 0.00 | 0.00 | 89 | 1021.1 |
| 20260831025209 | 73 | 217 | 0.0 | 0.0 | 0.00 | 0.00 | 0.00 | 88 | 1021.2 |
| 20260831025007 | 73 | 217 | 0.0 | 0.0 | 0.00 | 0.00 | 0.00 | 88 | 1021.1 |
| 20260831024807 | 73 | 217 | 0.0 | 0.0 | 0.00 | 0.00 | 0.00 | 88 | 1021.2 |
| 20260831024609 | 73 | 217 | 0.0 | 0.0 | 0.00 | 0.00 | 0.00 | 88 | 1021.2 |
| 20260831024209 | 74 | 217 | 0.0 | 1.0 | 0.00 | 0.00 | 0.00 | 87 | 1021.2 |
| 20260831024007 | 74 | 217 | 0.0 | 1.0 | 0.00 | 0.00 | 0.00 | 87 | 1021.1 |
| 20260831023807 | 74 | 217 | 0.0 | 1.0 | 0.00 | 0.00 | 0.00 | 87 | 1021.1 |
| 20260831023608 | 74 | 217 | 0.0 | 1.0 | 0.00 | 0.00 | 0.00 | 87 | 1021.1 |
| 20260831023407 | 74 | 217 | 0.0 | 0.0 | 0.00 | 0.00 | 0.00 | 87 | 1021.0 |
| 20260831023209 | 74 | 217 | 0.0 | 0.0 | 0.00 | 0.00 | 0.00 | 87 | 1021.0 |
| 20260831023007 | 74 | 217 | 0.0 | 0.0 | 0.00 | 0.00 | 0.00 | 87 | 1021.0 |
| 20260831022807 | 74 | 217 | 0.0 | 0.0 | 0.00 | 0.00 | 0.00 | 86 | 1021.1 |
| 20260831022609 | 74 | 217 | 0.0 | 0.0 | 0.00 | 0.00 | 0.00 | 86 | 1021.2 |
| 20260831022407 | 74 | 217 | 0.0 | 0.0 | 0.00 | 0.00 | 0.00 | 87 | 1021.1 |
| 20260831022209 | 74 | 217 | 0.0 | 0.0 | 0.00 | 0.00 | 0.00 | 87 | 1021.0 |
| 20260831022007 | 74 | 217 | 0.0 | 0.0 | 0.00 | 0.00 | 0.00 | 86 | 1021.1 |
| 20260831021809 | 74 | 217 | 0.0 | 0.0 | 0.00 | 0.00 | 0.00 | 86 | 1021.1 |
| 20260831021608 | 74 | 217 | 0.0 | 0.0 | 0.00 | 0.00 | 0.00 | 86 | 1021.1 |
| 20260831021407 | 74 | 217 | 0.0 | 0.0 | 0.00 | 0.00 | 0.00 | 86 | 1021.0 |
| 20260831021007 | 74 | 217 | 0.0 | 0.0 | 0.00 | 0.00 | 0.00 | 86 | 1021.1 |
| 20260831020807 | 74 | 217 | 0.0 | 0.0 | 0.00 | 0.00 | 0.00 | 86 | 1021.0 |
| 20260831020610 | 75 | 217 | 0.0 | 0.0 | 0.00 | 0.00 | 0.00 | 85 | 1021.1 |
| 20260831020407 | 75 | 217 | 0.0 | 0.0 | 0.00 | 0.00 | 0.00 | 85 | 1021.0 |
| 20260831020209 | 75 | 217 | 0.0 | 0.0 | 0.00 | 0.00 | 0.00 | 85 | 1021.0 |
| 20260831020009 | 75 | 217 | 0.0 | 0.0 | 0.00 | 0.00 | 0.00 | 85 | 1021.0 |
| 20260831015807 | 75 | 217 | 0.0 | 0.0 | 0.00 | 0.00 | 0.00 | 85 | 1021.0 |
| 20260831015608 | 75 | 217 | 0.0 | 0.0 | 0.00 | 0.00 | 0.00 | 85 | 1021.0 |
| 20260831015407 | 75 | 217 | 0.0 | 0.0 | 0.00 | 0.00 | 0.00 | 85 | 1021.1 |
| 20260831015209 | 75 | 217 | 0.0 | 0.0 | 0.00 | 0.00 | 0.00 | 85 | 1021.1 |
| 20260831015007 | 75 | 217 | 0.0 | 0.0 | 0.00 | 0.00 | 0.00 | 85 | 1021.1 |
| 20260831014807 | 75 | 217 | 0.0 | 0.0 | 0.00 | 0.00 | 0.00 | 85 | 1021.2 |
| 20260831014609 | 75 | 217 | 0.0 | 0.0 | 0.00 | 0.00 | 0.00 | 85 | 1021.2 |
| 20260831014407 | 75 | 217 | 0.0 | 0.0 | 0.00 | 0.00 | 0.00 | 85 | 1021.1 |
| 20260831014209 | 75 | 217 | 0.0 | 0.0 | 0.00 | 0.00 | 0.00 | 85 | 1021.1 |
| 20260831014007 | 75 | 217 | 0.0 | 0.0 | 0.00 | 0.00 | 0.00 | 85 | 1021.0 |
| 20260831013609 | 76 | 217 | 0.0 | 0.0 | 0.00 | 0.00 | 0.00 | 85 | 1021.0 |
| 20260831013407 | 76 | 217 | 0.0 | 0.0 | 0.00 | 0.00 | 0.00 | 85 | 1020.9 |
| 20260831013209 | 76 | 217 | 0.0 | 0.0 | 0.00 | 0.00 | 0.00 | 85 | 1020.9 |
| 20260831012608 | 76 | 217 | 0.0 | 0.0 | 0.00 | 0.00 | 0.00 | 84 | 1020.8 |
| 20260831012209 | 76 | 217 | 0.0 | 0.0 | 0.00 | 0.00 | 0.00 | 84 | 1020.9 |
| 20260831012007 | 76 | 217 | 0.0 | 0.0 | 0.00 | 0.00 | 0.00 | 84 | 1020.8 |
| 20260831011807 | 76 | 217 | 0.0 | 0.0 | 0.00 | 0.00 | 0.00 | 84 | 1020.8 |
| 20260831011608 | 76 | 217 | 0.0 | 0.0 | 0.00 | 0.00 | 0.00 | 84 | 1020.8 |
| 20260831011408 | 76 | 217 | 0.0 | 0.0 | 0.00 | 0.00 | 0.00 | 84 | 1020.8 |
| 20260831011209 | 77 | 217 | 0.0 | 0.0 | 0.00 | 0.00 | 0.00 | 84 | 1020.7 |
| 20260831011007 | 77 | 217 | 0.0 | 0.0 | 0.00 | 0.00 | 0.00 | 84 | 1020.7 |
| 20260831010807 | 77 | 217 | 0.0 | 0.0 | 0.00 | 0.00 | 0.00 | 84 | 1020.7 |
| 20260831010608 | 77 | 217 | 0.0 | 0.0 | 0.00 | 0.00 | 0.00 | 83 | 1020.6 |
| 20260831010209 | 77 | 217 | 0.0 | 0.0 | 0.00 | 0.00 | 0.00 | 83 | 1020.6 |
| 20260831010009 | 77 | 217 | 0.0 | 0.0 | 0.00 | 0.00 | 0.00 | 83 | 1020.7 |
| 20260831005807 | 77 | 217 | 0.0 | 0.0 | 0.00 | 0.21 | 0.00 | 82 | 1020.7 |
| 20260831005608 | 77 | 217 | 0.0 | 0.0 | 0.00 | 0.21 | 0.00 | 83 | 1020.7 |
| 20260831005209 | 77 | 217 | 0.0 | 0.0 | 0.00 | 0.21 | 0.00 | 82 | 1020.5 |
| 20260831005007 | 78 | 217 | 0.0 | 0.0 | 0.00 | 0.21 | 0.00 | 82 | 1020.4 |
| 20260831004807 | 78 | 217 | 0.0 | 0.0 | 0.00 | 0.21 | 0.00 | 82 | 1020.4 |
| 20260831004407 | 78 | 217 | 0.0 | 0.0 | 0.00 | 0.21 | 0.00 | 82 | 1020.5 |
| 20260831004211 | 78 | 217 | 0.0 | 0.0 | 0.00 | 0.21 | 0.00 | 81 | 1020.5 |
| 20260831003807 | 78 | 217 | 0.0 | 0.0 | 0.00 | 0.21 | 0.00 | 81 | 1020.4 |
| 20260831003607 | 78 | 217 | 0.0 | 0.0 | 0.00 | 0.21 | 0.00 | 81 | 1020.4 |
| 20260831003407 | 79 | 217 | 0.0 | 0.0 | 0.00 | 0.21 | 0.00 | 81 | 1020.4 |
| 20260831003210 | 79 | 217 | 0.0 | 0.0 | 0.00 | 0.21 | 0.00 | 80 | 1020.3 |
| 20260831003010 | 79 | 217 | 0.0 | 0.0 | 0.00 | 0.21 | 0.00 | 80 | 1020.2 |
| 20260831002607 | 79 | 217 | 0.0 | 0.0 | 0.00 | 0.21 | 0.00 | 80 | 1020.2 |
| 20260831002407 | 79 | 217 | 0.0 | 0.0 | 0.00 | 0.21 | 0.00 | 79 | 1020.1 |
| 20260831002209 | 79 | 217 | 0.0 | 0.0 | 0.00 | 0.21 | 0.00 | 79 | 1020.1 |
| 20260831002007 | 79 | 217 | 0.0 | 0.0 | 0.00 | 0.21 | 0.00 | 79 | 1020.1 |
| 20260831001807 | 79 | 217 | 0.0 | 0.0 | 0.00 | 0.21 | 0.00 | 79 | 1020.0 |
| 20260831001607 | 80 | 217 | 0.0 | 0.0 | 0.00 | 0.21 | 0.00 | 78 | 1020.1 |
| 20260831001408 | 80 | 217 | 0.0 | 0.0 | 0.00 | 0.21 | 0.00 | 77 | 1020.1 |
| 20260831001007 | 80 | 217 | 0.0 | 0.0 | 0.00 | 0.21 | 0.00 | 77 | 1020.1 |
| 20260831000807 | 80 | 217 | 0.0 | 0.0 | 0.00 | 0.21 | 0.00 | 77 | 1020.1 |
| 20260831000607 | 80 | 217 | 0.0 | 0.0 | 0.00 | 0.21 | 0.00 | 76 | 1020.1 |
| 20260831000410 | 80 | 217 | 0.0 | 0.0 | 0.00 | 0.21 | 0.00 | 76 | 1020.1 |
| 20260831000211 | 80 | 217 | 0.0 | 0.0 | 0.00 | 0.21 | 0.00 | 76 | 1020.1 |
| 20260831000009 | 81 | 217 | 0.0 | 0.0 | 0.00 | 0.21 | 0.00 | 76 | 1020.0 |
| 20260830235807 | 81 | 217 | 0.0 | 0.0 | 0.00 | 0.21 | 0.00 | 76 | 1019.9 |
| 20260830235607 | 81 | 217 | 0.0 | 0.0 | 0.00 | 0.21 | 0.00 | 76 | 1019.9 |
| 20260830235407 | 81 | 217 | 0.0 | 0.0 | 0.00 | 0.21 | 0.00 | 76 | 1020.0 |
| 20260830235209 | 81 | 217 | 0.0 | 0.0 | 0.00 | 0.21 | 0.00 | 75 | 1020.0 |
| 20260830235007 | 81 | 217 | 0.0 | 0.0 | 0.00 | 0.21 | 0.00 | 75 | 1019.9 |
| 20260830234807 | 81 | 217 | 0.0 | 0.0 | 0.00 | 0.21 | 0.00 | 75 | 1019.9 |
| 20260830234607 | 82 | 217 | 0.0 | 0.0 | 0.00 | 0.21 | 0.00 | 75 | 1019.8 |
| 20260830234407 | 82 | 217 | 0.0 | 0.0 | 0.00 | 0.21 | 0.00 | 75 | 1019.9 |
| 20260830234210 | 82 | 217 | 0.0 | 0.0 | 0.00 | 0.21 | 0.00 | 75 | 1019.9 |
| 20260830234007 | 82 | 217 | 0.0 | 0.0 | 0.00 | 0.21 | 0.00 | 75 | 1019.9 |
| 20260830233407 | 82 | 217 | 0.0 | 0.0 | 0.00 | 0.21 | 0.00 | 74 | 1019.9 |
| 20260830232807 | 83 | 217 | 0.0 | 0.0 | 0.00 | 0.21 | 0.00 | 73 | 1019.8 |
| 20260830232607 | 83 | 217 | 0.0 | 0.0 | 0.00 | 0.21 | 0.00 | 73 | 1019.9 |
| 20260830232208 | 83 | 217 | 0.0 | 0.0 | 0.00 | 0.21 | 0.00 | 73 | 1019.8 |
| 20260830232007 | 83 | 217 | 0.0 | 0.0 | 0.00 | 0.21 | 0.00 | 73 | 1019.8 |
| 20260830231809 | 83 | 217 | 0.0 | 0.0 | 0.00 | 0.21 | 0.00 | 73 | 1019.8 |
| 20260830231607 | 83 | 217 | 0.0 | 0.0 | 0.00 | 0.21 | 0.00 | 72 | 1019.8 |
| 20260830231407 | 83 | 217 | 0.0 | 0.0 | 0.00 | 0.21 | 0.00 | 72 | 1019.8 |
| 20260830231210 | 83 | 217 | 0.0 | 1.0 | 0.00 | 0.21 | 0.00 | 71 | 1019.9 |
| 20260830230810 | 83 | 217 | 0.0 | 2.0 | 0.00 | 0.21 | 0.00 | 71 | 1019.9 |
| 20260830230607 | 83 | 217 | 1.0 | 2.0 | 0.00 | 0.21 | 0.00 | 71 | 1019.9 |
| 20260830230407 | 83 | 217 | 1.0 | 2.0 | 0.00 | 0.21 | 0.00 | 70 | 1019.9 |
| 20260830230207 | 83 | 217 | 1.0 | 2.0 | 0.00 | 0.21 | 0.00 | 70 | 1019.8 |
| 20260830230010 | 83 | 217 | 1.0 | 2.0 | 0.00 | 0.21 | 0.00 | 70 | 1019.8 |
| 20260830225808 | 83 | 217 | 1.0 | 2.0 | 0.00 | 0.21 | 0.00 | 70 | 1019.7 |
| 20260830225607 | 84 | 217 | 1.0 | 2.0 | 0.00 | 0.21 | 0.00 | 70 | 1019.7 |
| 20260830225407 | 84 | 217 | 0.0 | 2.0 | 0.00 | 0.21 | 0.00 | 69 | 1019.7 |
| 20260830225207 | 84 | 217 | 0.0 | 0.0 | 0.00 | 0.21 | 0.00 | 69 | 1019.7 |
| 20260830225007 | 84 | 217 | 0.0 | 2.0 | 0.00 | 0.21 | 0.00 | 69 | 1019.8 |
| 20260830224807 | 84 | 217 | 0.0 | 2.0 | 0.00 | 0.21 | 0.00 | 69 | 1019.8 |
| 20260830224606 | 84 | 217 | 0.0 | 2.0 | 0.00 | 0.21 | 0.00 | 69 | 1019.8 |
| 20260830224408 | 84 | 217 | 0.0 | 2.0 | 0.00 | 0.21 | 0.00 | 69 | 1019.7 |
| 20260830224207 | 84 | 217 | 0.0 | 2.0 | 0.00 | 0.21 | 0.00 | 69 | 1019.7 |
| 20260830223807 | 84 | 229 | 0.0 | 1.0 | 0.00 | 0.21 | 0.00 | 69 | 1019.8 |
| 20260830223607 | 84 | 229 | 0.0 | 1.0 | 0.00 | 0.21 | 0.00 | 68 | 1019.8 |
| 20260830223408 | 84 | 229 | 0.0 | 1.0 | 0.00 | 0.21 | 0.00 | 68 | 1019.7 |
| 20260830223207 | 85 | 229 | 0.0 | 1.0 | 0.00 | 0.21 | 0.00 | 68 | 1019.7 |
| 20260830223009 | 85 | 229 | 0.0 | 0.0 | 0.00 | 0.21 | 0.00 | 67 | 1019.7 |
| 20260830222807 | 85 | 229 | 0.0 | 0.0 | 0.00 | 0.21 | 0.00 | 67 | 1019.7 |
| 20260830222607 | 85 | 229 | 0.0 | 0.0 | 0.00 | 0.21 | 0.00 | 67 | 1019.7 |
| 20260830222409 | 85 | 229 | 0.0 | 0.0 | 0.00 | 0.21 | 0.00 | 67 | 1019.7 |
| 20260830222207 | 85 | 229 | 0.0 | 2.0 | 0.00 | 0.21 | 0.00 | 66 | 1019.6 |
| 20260830221806 | 85 | 229 | 0.0 | 2.0 | 0.00 | 0.21 | 0.00 | 65 | 1019.6 |
| 20260830221606 | 85 | 229 | 1.0 | 3.0 | 0.00 | 0.21 | 0.00 | 65 | 1019.7 |
| 20260830221408 | 85 | 229 | 0.0 | 3.0 | 0.00 | 0.21 | 0.00 | 66 | 1019.7 |
| 20260830221009 | 85 | 229 | 0.0 | 3.0 | 0.00 | 0.21 | 0.00 | 67 | 1019.8 |
| 20260830220807 | 85 | 208 | 1.0 | 3.0 | 0.00 | 0.21 | 0.00 | 68 | 1019.7 |
| 20260830220607 | 85 | 208 | 1.0 | 3.0 | 0.00 | 0.21 | 0.00 | 68 | 1019.7 |
| 20260830220407 | 85 | 208 | 1.0 | 3.0 | 0.00 | 0.21 | 0.00 | 67 | 1019.8 |
| 20260830220208 | 85 | 208 | 1.0 | 4.0 | 0.00 | 0.21 | 0.00 | 66 | 1019.8 |
| 20260830220010 | 85 | 208 | 1.0 | 4.0 | 0.00 | 0.21 | 0.00 | 67 | 1019.8 |
| 20260830215808 | 85 | 207 | 1.0 | 4.0 | 0.00 | 0.21 | 0.00 | 65 | 1019.9 |
| 20260830215607 | 85 | 208 | 1.0 | 4.0 | 0.00 | 0.21 | 0.00 | 65 | 1019.8 |
| 20260830215408 | 85 | 209 | 1.0 | 4.0 | 0.00 | 0.21 | 0.00 | 66 | 1019.8 |
| 20260830215207 | 85 | 220 | 1.0 | 3.0 | 0.00 | 0.21 | 0.00 | 66 | 1019.8 |
| 20260830215009 | 85 | 333 | 0.0 | 3.0 | 0.00 | 0.21 | 0.00 | 65 | 1019.7 |
| 20260830214808 | 85 | 355 | 1.0 | 3.0 | 0.00 | 0.21 | 0.00 | 64 | 1019.8 |
| 20260830214610 | 86 | 360 | 1.0 | 3.0 | 0.00 | 0.21 | 0.00 | 64 | 1019.8 |
| 20260830214407 | 86 | 263 | 1.0 | 3.0 | 0.00 | 0.21 | 0.00 | 64 | 1019.8 |
| 20260830214007 | 86 | 213 | 1.0 | 3.0 | 0.00 | 0.21 | 0.00 | 64 | 1019.9 |
| 20260830213807 | 86 | 277 | 1.0 | 3.0 | 0.00 | 0.21 | 0.00 | 64 | 1019.9 |
| 20260830213610 | 86 | 242 | 1.0 | 3.0 | 0.00 | 0.21 | 0.00 | 63 | 1020.0 |
| 20260830213407 | 86 | 355 | 1.0 | 3.0 | 0.00 | 0.21 | 0.00 | 63 | 1019.9 |
| 20260830213207 | 86 | 173 | 1.0 | 3.0 | 0.00 | 0.21 | 0.00 | 65 | 1019.9 |
| 20260830213007 | 86 | 180 | 1.0 | 3.0 | 0.00 | 0.21 | 0.00 | 63 | 1019.9 |
| 20260830212610 | 86 | 232 | 1.0 | 3.0 | 0.00 | 0.21 | 0.00 | 64 | 1019.9 |
| 20260830212407 | 86 | 159 | 0.0 | 3.0 | 0.00 | 0.21 | 0.00 | 64 | 1020.0 |
| 20260830212207 | 86 | 201 | 0.0 | 3.0 | 0.00 | 0.21 | 0.00 | 64 | 1019.9 |
| 20260830212007 | 86 | 188 | 0.0 | 2.0 | 0.00 | 0.21 | 0.00 | 66 | 1020.0 |
| 20260830211209 | 86 | 213 | 0.0 | 3.0 | 0.00 | 0.21 | 0.00 | 63 | 1020.2 |
| 20260830211007 | 86 | 213 | 0.0 | 3.0 | 0.00 | 0.21 | 0.00 | 60 | 1020.1 |
| 20260830210407 | 87 | 104 | 0.0 | 2.0 | 0.00 | 0.21 | 0.00 | 67 | 1020.1 |
| 20260830210210 | 87 | 104 | 0.0 | 2.0 | 0.00 | 0.21 | 0.00 | 67 | 1020.1 |
| 20260830210008 | 87 | 104 | 1.0 | 2.0 | 0.00 | 0.21 | 0.00 | 68 | 1020.1 |
| 20260830205806 | 87 | 104 | 1.0 | 2.0 | 0.00 | 0.21 | 0.00 | 66 | 1020.2 |
| 20260830205607 | 87 | 104 | 1.0 | 2.0 | 0.00 | 0.21 | 0.00 | 63 | 1020.2 |
| 20260830205406 | 87 | 171 | 1.0 | 3.0 | 0.00 | 0.21 | 0.00 | 65 | 1020.1 |
| 20260830205210 | 87 | 175 | 1.0 | 3.0 | 0.00 | 0.21 | 0.00 | 64 | 1020.1 |
| 20260830205006 | 87 | 207 | 1.0 | 3.0 | 0.00 | 0.21 | 0.00 | 62 | 1020.1 |
| 20260830204805 | 87 | 126 | 0.0 | 3.0 | 0.00 | 0.21 | 0.00 | 62 | 1020.1 |
| 20260830204606 | 87 | 146 | 1.0 | 3.0 | 0.00 | 0.21 | 0.00 | 65 | 1020.1 |
| 20260830204406 | 87 | 210 | 1.0 | 3.0 | 0.00 | 0.21 | 0.00 | 64 | 1020.0 |
| 20260830204006 | 87 | 348 | 1.0 | 2.0 | 0.00 | 0.21 | 0.00 | 65 | 1019.9 |
| 20260830203805 | 87 | 55 | 1.0 | 2.0 | 0.00 | 0.21 | 0.00 | 62 | 1020.0 |
| 20260830203606 | 88 | 74 | 1.0 | 2.0 | 0.00 | 0.21 | 0.00 | 63 | 1020.0 |
| 20260830203406 | 88 | 186 | 1.0 | 2.0 | 0.00 | 0.21 | 0.00 | 61 | 1020.1 |
| 20260830203209 | 88 | 223 | 1.0 | 2.0 | 0.00 | 0.21 | 0.00 | 61 | 1020.1 |
| 20260830203006 | 88 | 59 | 1.0 | 2.0 | 0.00 | 0.21 | 0.00 | 63 | 1020.1 |
| 20260830202808 | 88 | 115 | 1.0 | 2.0 | 0.00 | 0.21 | 0.00 | 62 | 1020.1 |
| 20260830202607 | 88 | 107 | 1.0 | 3.0 | 0.00 | 0.21 | 0.00 | 63 | 1020.2 |
| 20260830202406 | 88 | 78 | 1.0 | 3.0 | 0.00 | 0.21 | 0.00 | 63 | 1020.2 |
| 20260830202206 | 88 | 78 | 1.0 | 3.0 | 0.00 | 0.21 | 0.00 | 62 | 1020.3 |
| 20260830202006 | 88 | 78 | 1.0 | 3.0 | 0.00 | 0.21 | 0.00 | 60 | 1020.4 |
| 20260830201807 | 89 | 211 | 1.0 | 4.0 | 0.00 | 0.21 | 0.00 | 61 | 1020.3 |
| 20260830201605 | 89 | 153 | 1.0 | 5.0 | 0.00 | 0.21 | 0.00 | 65 | 1020.4 |
| 20260830201408 | 89 | 90 | 1.0 | 5.0 | 0.00 | 0.21 | 0.00 | 64 | 1020.4 |
| 20260830201207 | 88 | 59 | 1.0 | 5.0 | 0.00 | 0.21 | 0.00 | 62 | 1020.4 |
| 20260830201006 | 88 | 77 | 1.0 | 5.0 | 0.00 | 0.21 | 0.00 | 62 | 1020.5 |
| 20260830200807 | 88 | 105 | 1.0 | 4.0 | 0.00 | 0.21 | 0.00 | 62 | 1020.5 |
| 20260830200606 | 88 | 76 | 1.0 | 3.0 | 0.00 | 0.21 | 0.00 | 64 | 1020.5 |
| 20260830200405 | 88 | 238 | 1.0 | 5.0 | 0.00 | 0.21 | 0.00 | 65 | 1020.5 |
| 20260830200205 | 89 | 337 | 1.0 | 5.0 | 0.00 | 0.21 | 0.00 | 66 | 1020.5 |
| 20260830200008 | 89 | 337 | 1.0 | 5.0 | 0.00 | 0.21 | 0.00 | 65 | 1020.6 |
| 20260830195807 | 89 | 337 | 1.0 | 5.0 | 0.00 | 0.21 | 0.00 | 65 | 1020.6 |
| 20260830195408 | 89 | 47 | 2.0 | 3.0 | 0.00 | 0.21 | 0.00 | 62 | 1020.5 |
| 20260830195206 | 89 | 117 | 2.0 | 5.0 | 0.00 | 0.21 | 0.00 | 64 | 1020.5 |
| 20260830195007 | 89 | 148 | 3.0 | 5.0 | 0.00 | 0.21 | 0.00 | 63 | 1020.6 |
| 20260830194606 | 90 | 225 | 2.0 | 5.0 | 0.00 | 0.21 | 0.00 | 61 | 1020.6 |
| 20260830194006 | 89 | 211 | 1.0 | 5.0 | 0.00 | 0.21 | 0.00 | 67 | 1020.8 |
| 20260830193806 | 89 | 185 | 1.0 | 4.0 | 0.00 | 0.21 | 0.00 | 66 | 1020.8 |
| 20260830193606 | 89 | 255 | 1.0 | 4.0 | 0.00 | 0.21 | 0.00 | 64 | 1020.8 |
| 20260830193408 | 89 | 202 | 1.0 | 4.0 | 0.00 | 0.21 | 0.00 | 67 | 1020.8 |
| 20260830193206 | 89 | 154 | 1.0 | 4.0 | 0.00 | 0.21 | 0.00 | 66 | 1020.8 |
| 20260830193008 | 89 | 155 | 0.0 | 4.0 | 0.00 | 0.21 | 0.00 | 68 | 1020.8 |
| 20260830192808 | 89 | 43 | 0.0 | 2.0 | 0.00 | 0.21 | 0.00 | 63 | 1020.9 |
| 20260830192606 | 89 | 62 | 0.0 | 3.0 | 0.00 | 0.21 | 0.00 | 68 | 1021.0 |
| 20260830192008 | 89 | 146 | 1.0 | 3.0 | 0.00 | 0.21 | 0.00 | 63 | 1021.1 |
| 20260830191806 | 89 | 80 | 1.0 | 3.0 | 0.00 | 0.21 | 0.00 | 66 | 1021.1 |
| 20260830191606 | 89 | 170 | 1.0 | 3.0 | 0.00 | 0.21 | 0.00 | 69 | 1021.1 |
| 20260830191205 | 89 | 139 | 2.0 | 4.0 | 0.00 | 0.21 | 0.00 | 69 | 1021.3 |
| 20260830191008 | 89 | 201 | 2.0 | 4.0 | 0.00 | 0.21 | 0.00 | 68 | 1021.2 |
| 20260830190807 | 89 | 199 | 1.0 | 4.0 | 0.00 | 0.21 | 0.00 | 63 | 1021.3 |
| 20260830190606 | 89 | 206 | 1.0 | 4.0 | 0.00 | 0.21 | 0.00 | 62 | 1021.3 |
| 20260830190407 | 89 | 206 | 1.0 | 3.0 | 0.00 | 0.21 | 0.00 | 65 | 1021.3 |
| 20260830190206 | 89 | 190 | 1.0 | 3.0 | 0.00 | 0.21 | 0.00 | 68 | 1021.3 |
| 20260830190011 | 89 | 213 | 1.0 | 3.0 | 0.00 | 0.21 | 0.00 | 71 | 1021.5 |
| 20260830185806 | 89 | 204 | 1.0 | 4.0 | 0.00 | 0.21 | 0.00 | 67 | 1021.5 |
| 20260830185606 | 89 | 214 | 1.0 | 4.0 | 0.00 | 0.21 | 0.00 | 63 | 1021.4 |
| 20260830185407 | 89 | 136 | 1.0 | 4.0 | 0.00 | 0.21 | 0.00 | 68 | 1021.4 |
| 20260830185008 | 89 | 217 | 1.0 | 4.0 | 0.00 | 0.21 | 0.00 | 69 | 1021.6 |
| 20260830184606 | 89 | 158 | 2.0 | 4.0 | 0.00 | 0.21 | 0.00 | 70 | 1021.6 |
| 20260830184407 | 89 | 37 | 2.0 | 6.0 | 0.00 | 0.21 | 0.00 | 70 | 1021.6 |
| 20260830184206 | 89 | 219 | 2.0 | 6.0 | 0.00 | 0.21 | 0.00 | 73 | 1021.6 |
| 20260830183806 | 88 | 130 | 2.0 | 6.0 | 0.00 | 0.21 | 0.00 | 68 | 1021.7 |
| 20260830183606 | 88 | 209 | 2.0 | 6.0 | 0.00 | 0.21 | 0.00 | 72 | 1021.8 |
| 20260830182806 | 88 | 208 | 3.0 | 7.0 | 0.00 | 0.21 | 0.00 | 69 | 1021.9 |
| 20260830182606 | 87 | 217 | 2.0 | 7.0 | 0.00 | 0.21 | 0.00 | 73 | 1021.9 |
| 20260830182407 | 87 | 236 | 2.0 | 6.0 | 0.00 | 0.21 | 0.00 | 73 | 1021.9 |
| 20260830182206 | 87 | 158 | 1.0 | 5.0 | 0.00 | 0.21 | 0.00 | 72 | 1021.9 |
| 20260830181806 | 87 | 148 | 1.0 | 4.0 | 0.00 | 0.21 | 0.00 | 72 | 1022.0 |
| 20260830181606 | 87 | 244 | 1.0 | 4.0 | 0.00 | 0.21 | 0.00 | 72 | 1021.9 |
| 20260830181408 | 87 | 272 | 1.0 | 3.0 | 0.00 | 0.21 | 0.00 | 73 | 1022.0 |
| 20260830181206 | 87 | 30 | 1.0 | 3.0 | 0.00 | 0.21 | 0.00 | 72 | 1022.1 |
| 20260830181008 | 86 | 118 | 1.0 | 3.0 | 0.00 | 0.21 | 0.00 | 73 | 1022.1 |
| 20260830180806 | 86 | 216 | 1.0 | 3.0 | 0.00 | 0.21 | 0.00 | 72 | 1022.2 |
| 20260830180606 | 86 | 140 | 1.0 | 3.0 | 0.00 | 0.21 | 0.00 | 75 | 1022.1 |
| 20260830180408 | 86 | 194 | 1.0 | 3.0 | 0.00 | 0.21 | 0.00 | 73 | 1022.2 |
| 20260830180206 | 86 | 69 | 1.0 | 3.0 | 0.00 | 0.21 | 0.00 | 75 | 1022.2 |
| 20260830180014 | 86 | 317 | 1.0 | 3.0 | 0.00 | 0.21 | 0.00 | 72 | 1022.2 |
| 20260830175806 | 86 | 259 | 0.0 | 3.0 | 0.00 | 0.21 | 0.00 | 70 | 1022.3 |
| 20260830175606 | 86 | 208 | 0.0 | 3.0 | 0.00 | 0.21 | 0.00 | 73 | 1022.4 |
| 20260830175408 | 87 | 166 | 0.0 | 2.0 | 0.00 | 0.21 | 0.00 | 73 | 1022.3 |
| 20260830175206 | 87 | 117 | 1.0 | 2.0 | 0.00 | 0.21 | 0.00 | 73 | 1022.4 |
| 20260830175010 | 87 | 126 | 1.0 | 4.0 | 0.00 | 0.21 | 0.00 | 73 | 1022.4 |
| 20260830174806 | 87 | 126 | 1.0 | 4.0 | 0.00 | 0.21 | 0.00 | 73 | 1022.5 |
| 20260830174606 | 87 | 140 | 1.0 | 4.0 | 0.00 | 0.21 | 0.00 | 72 | 1022.5 |
| 20260830174408 | 87 | 204 | 1.0 | 4.0 | 0.00 | 0.21 | 0.00 | 74 | 1022.5 |
| 20260830174206 | 87 | 161 | 1.0 | 3.0 | 0.00 | 0.21 | 0.00 | 73 | 1022.4 |
| 20260830173806 | 87 | 336 | 1.0 | 3.0 | 0.00 | 0.21 | 0.00 | 72 | 1022.5 |
| 20260830173408 | 87 | 192 | 1.0 | 3.0 | 0.00 | 0.21 | 0.00 | 76 | 1022.5 |
| 20260830173206 | 87 | 146 | 1.0 | 3.0 | 0.00 | 0.21 | 0.00 | 74 | 1022.5 |
| 20260830173008 | 87 | 142 | 1.0 | 3.0 | 0.00 | 0.21 | 0.00 | 72 | 1022.5 |
| 20260830172806 | 87 | 98 | 1.0 | 3.0 | 0.00 | 0.21 | 0.00 | 72 | 1022.5 |
| 20260830172606 | 87 | 294 | 0.0 | 3.0 | 0.00 | 0.21 | 0.00 | 77 | 1022.6 |
| 20260830172407 | 86 | 199 | 1.0 | 3.0 | 0.00 | 0.21 | 0.00 | 76 | 1022.6 |
| 20260830172008 | 86 | 268 | 1.0 | 5.0 | 0.00 | 0.21 | 0.00 | 74 | 1022.5 |
| 20260830171807 | 86 | 195 | 1.0 | 5.0 | 0.00 | 0.21 | 0.00 | 76 | 1022.6 |
| 20260830171606 | 86 | 202 | 1.0 | 5.0 | 0.00 | 0.21 | 0.00 | 76 | 1022.7 |
| 20260830171408 | 86 | 219 | 1.0 | 5.0 | 0.00 | 0.21 | 0.00 | 75 | 1022.8 |
| 20260830171206 | 86 | 163 | 1.0 | 4.0 | 0.00 | 0.21 | 0.00 | 75 | 1022.8 |
| 20260830171008 | 85 | 164 | 2.0 | 5.0 | 0.00 | 0.21 | 0.00 | 76 | 1022.9 |
| 20260830170807 | 85 | 167 | 2.0 | 5.0 | 0.00 | 0.21 | 0.00 | 76 | 1022.9 |
| 20260830170606 | 85 | 204 | 2.0 | 6.0 | 0.00 | 0.21 | 0.00 | 77 | 1022.9 |
| 20260830170407 | 85 | 229 | 2.0 | 6.0 | 0.00 | 0.21 | 0.00 | 79 | 1022.9 |
| 20260830170206 | 85 | 221 | 2.0 | 6.0 | 0.00 | 0.21 | 0.00 | 79 | 1022.9 |
| 20260830170010 | 84 | 190 | 2.0 | 6.0 | 0.00 | 0.21 | 0.00 | 80 | 1022.9 |
| 20260830165606 | 84 | 205 | 2.0 | 5.0 | 0.00 | 0.21 | 0.00 | 77 | 1022.9 |
| 20260830165407 | 83 | 205 | 2.0 | 5.0 | 0.00 | 0.21 | 0.00 | 76 | 1022.9 |
| 20260830165206 | 83 | 209 | 2.0 | 5.0 | 0.00 | 0.21 | 0.00 | 81 | 1023.0 |